Year,Month,Day,Hour,Minute,Value (Times are PST for temperature in C)
2019,03,17,00,00,7.60
2019,03,17,00,01,7.60
2019,03,17,00,02,7.50
2019,03,17,00,03,7.50
2019,03,17,00,04,7.50
2019,03,17,00,05,7.40
2019,03,17,00,06,7.40
2019,03,17,00,07,7.40
2019,03,17,00,08,7.40
2019,03,17,00,09,7.40
2019,03,17,00,10,7.40
2019,03,17,00,11,7.40
2019,03,17,00,12,7.40
2019,03,17,00,13,7.40
2019,03,17,00,14,7.40
2019,03,17,00,15,7.40
2019,03,17,00,16,7.40
2019,03,17,00,17,7.40
2019,03,17,00,18,7.40
2019,03,17,00,19,7.40
2019,03,17,00,20,7.40
2019,03,17,00,21,7.40
2019,03,17,00,22,7.40
2019,03,17,00,23,7.40
2019,03,17,00,24,7.40
2019,03,17,00,25,7.40
2019,03,17,00,26,7.40
2019,03,17,00,27,7.40
2019,03,17,00,28,7.40
2019,03,17,00,29,7.40
2019,03,17,00,30,7.40
2019,03,17,00,31,7.40
2019,03,17,00,32,7.40
2019,03,17,00,33,7.30
2019,03,17,00,34,7.30
2019,03,17,00,35,7.30
2019,03,17,00,36,7.30
2019,03,17,00,37,7.30
2019,03,17,00,38,7.30
2019,03,17,00,39,7.30
2019,03,17,00,40,7.30
2019,03,17,00,41,7.20
2019,03,17,00,42,7.20
2019,03,17,00,43,7.20
2019,03,17,00,44,7.20
2019,03,17,00,45,7.20
2019,03,17,00,46,7.20
2019,03,17,00,47,7.20
2019,03,17,00,48,7.20
2019,03,17,00,49,7.20
2019,03,17,00,50,7.10
2019,03,17,00,51,7.10
2019,03,17,00,52,7.10
2019,03,17,00,53,7.10
2019,03,17,00,54,7.10
2019,03,17,00,55,7.00
2019,03,17,00,56,7.00
2019,03,17,00,57,7.00
2019,03,17,00,58,6.90
2019,03,17,00,59,6.90
2019,03,17,01,00,6.90
2019,03,17,01,01,6.80
2019,03,17,01,02,6.80
2019,03,17,01,03,6.80
2019,03,17,01,04,6.80
2019,03,17,01,05,6.70
2019,03,17,01,06,6.70
2019,03,17,01,07,6.70
2019,03,17,01,08,6.70
2019,03,17,01,09,6.70
2019,03,17,01,10,6.70
2019,03,17,01,11,6.70
2019,03,17,01,12,6.70
2019,03,17,01,13,6.70
2019,03,17,01,14,6.70
2019,03,17,01,15,6.70
2019,03,17,01,16,6.70
2019,03,17,01,17,6.70
2019,03,17,01,18,6.70
2019,03,17,01,19,6.70
2019,03,17,01,20,6.70
2019,03,17,01,21,6.70
2019,03,17,01,22,6.70
2019,03,17,01,23,6.70
2019,03,17,01,24,6.70
2019,03,17,01,25,6.70
2019,03,17,01,26,6.70
2019,03,17,01,27,6.70
2019,03,17,01,28,6.70
2019,03,17,01,29,6.70
2019,03,17,01,30,6.70
2019,03,17,01,31,6.60
2019,03,17,01,32,6.60
2019,03,17,01,33,6.60
2019,03,17,01,34,6.60
2019,03,17,01,35,6.60
2019,03,17,01,36,6.60
2019,03,17,01,37,6.60
2019,03,17,01,38,6.60
2019,03,17,01,39,6.60
2019,03,17,01,40,6.60
2019,03,17,01,41,6.60
2019,03,17,01,42,6.60
2019,03,17,01,43,6.60
2019,03,17,01,44,6.60
2019,03,17,01,45,6.60
2019,03,17,01,46,6.60
2019,03,17,01,47,6.60
2019,03,17,01,48,6.60
2019,03,17,01,49,6.60
2019,03,17,01,50,6.60
2019,03,17,01,51,6.60
2019,03,17,01,52,6.60
2019,03,17,01,53,6.60
2019,03,17,01,54,6.60
2019,03,17,01,55,6.60
2019,03,17,01,56,6.60
2019,03,17,01,57,6.60
2019,03,17,01,58,6.50
2019,03,17,01,59,6.50
2019,03,17,02,00,6.50
2019,03,17,02,01,6.50
2019,03,17,02,02,6.50
2019,03,17,02,03,6.50
2019,03,17,02,04,6.50
2019,03,17,02,05,6.50
2019,03,17,02,06,6.40
2019,03,17,02,07,6.50
2019,03,17,02,08,6.40
2019,03,17,02,09,6.40
2019,03,17,02,10,6.40
2019,03,17,02,11,6.40
2019,03,17,02,12,6.30
2019,03,17,02,13,6.30
2019,03,17,02,14,6.30
2019,03,17,02,15,6.30
2019,03,17,02,16,6.30
2019,03,17,02,17,6.20
2019,03,17,02,18,6.20
2019,03,17,02,19,6.20
2019,03,17,02,20,6.20
2019,03,17,02,21,6.20
2019,03,17,02,22,6.10
2019,03,17,02,23,6.10
2019,03,17,02,24,6.10
2019,03,17,02,25,6.10
2019,03,17,02,26,6.10
2019,03,17,02,27,6.10
2019,03,17,02,28,6.10
2019,03,17,02,29,6.10
2019,03,17,02,30,6.00
2019,03,17,02,31,6.00
2019,03,17,02,32,6.00
2019,03,17,02,33,6.00
2019,03,17,02,34,6.00
2019,03,17,02,35,5.90
2019,03,17,02,36,5.90
2019,03,17,02,37,5.90
2019,03,17,02,38,5.90
2019,03,17,02,39,5.90
2019,03,17,02,40,5.90
2019,03,17,02,41,5.90
2019,03,17,02,42,5.90
2019,03,17,02,43,5.90
2019,03,17,02,44,5.90
2019,03,17,02,45,5.90
2019,03,17,02,46,5.90
2019,03,17,02,47,5.90
2019,03,17,02,48,5.90
2019,03,17,02,49,5.90
2019,03,17,02,50,5.90
2019,03,17,02,51,5.90
2019,03,17,02,52,5.90
2019,03,17,02,53,5.90
2019,03,17,02,54,5.80
2019,03,17,02,55,5.80
2019,03,17,02,56,5.80
2019,03,17,02,57,5.80
2019,03,17,02,58,5.80
2019,03,17,02,59,5.80
2019,03,17,03,00,5.80
2019,03,17,03,01,5.80
2019,03,17,03,02,5.80
2019,03,17,03,03,5.80
2019,03,17,03,04,5.80
2019,03,17,03,05,5.80
2019,03,17,03,06,5.80
2019,03,17,03,07,5.80
2019,03,17,03,08,5.80
2019,03,17,03,09,5.80
2019,03,17,03,10,5.80
2019,03,17,03,11,5.80
2019,03,17,03,12,5.80
2019,03,17,03,13,5.80
2019,03,17,03,14,5.80
2019,03,17,03,15,5.90
2019,03,17,03,16,5.90
2019,03,17,03,17,5.90
2019,03,17,03,18,5.90
2019,03,17,03,19,5.90
2019,03,17,03,20,5.90
2019,03,17,03,21,5.90
2019,03,17,03,22,6.00
2019,03,17,03,23,6.00
2019,03,17,03,24,6.00
2019,03,17,03,25,6.00
2019,03,17,03,26,6.00
2019,03,17,03,27,6.00
2019,03,17,03,28,6.00
2019,03,17,03,29,6.00
2019,03,17,03,30,6.00
2019,03,17,03,31,6.00
2019,03,17,03,32,6.00
2019,03,17,03,33,6.00
2019,03,17,03,34,6.10
2019,03,17,03,35,6.10
2019,03,17,03,36,6.10
2019,03,17,03,37,6.10
2019,03,17,03,38,6.20
2019,03,17,03,39,6.20
2019,03,17,03,40,6.20
2019,03,17,03,41,6.20
2019,03,17,03,42,6.20
2019,03,17,03,43,6.20
2019,03,17,03,44,6.20
2019,03,17,03,45,6.20
2019,03,17,03,46,6.20
2019,03,17,03,47,6.20
2019,03,17,03,48,6.20
2019,03,17,03,49,6.20
2019,03,17,03,50,6.20
2019,03,17,03,51,6.20
2019,03,17,03,52,6.20
2019,03,17,03,53,6.20
2019,03,17,03,54,6.20
2019,03,17,03,55,6.20
2019,03,17,03,56,6.20
2019,03,17,03,57,6.20
2019,03,17,03,58,6.20
2019,03,17,03,59,6.20
2019,03,17,04,00,6.20
2019,03,17,04,01,6.20
2019,03,17,04,02,6.20
2019,03,17,04,03,6.20
2019,03,17,04,04,6.20
2019,03,17,04,05,6.10
2019,03,17,04,06,6.10
2019,03,17,04,07,6.10
2019,03,17,04,08,6.10
2019,03,17,04,09,6.10
2019,03,17,04,10,6.10
2019,03,17,04,11,6.10
2019,03,17,04,12,6.10
2019,03,17,04,13,6.10
2019,03,17,04,14,6.10
2019,03,17,04,15,6.20
2019,03,17,04,16,6.20
2019,03,17,04,17,6.20
2019,03,17,04,18,6.20
2019,03,17,04,19,6.20
2019,03,17,04,20,6.20
2019,03,17,04,21,6.20
2019,03,17,04,22,6.20
2019,03,17,04,23,6.20
2019,03,17,04,24,6.20
2019,03,17,04,25,6.30
2019,03,17,04,26,6.30
2019,03,17,04,27,6.30
2019,03,17,04,28,6.30
2019,03,17,04,29,6.30
2019,03,17,04,30,6.30
2019,03,17,04,31,6.30
2019,03,17,04,32,6.30
2019,03,17,04,33,6.40
2019,03,17,04,34,6.40
2019,03,17,04,35,6.40
2019,03,17,04,36,6.40
2019,03,17,04,37,6.40
2019,03,17,04,38,6.40
2019,03,17,04,39,6.40
2019,03,17,04,40,6.40
2019,03,17,04,41,6.40
2019,03,17,04,42,6.40
2019,03,17,04,43,6.40
2019,03,17,04,44,6.40
2019,03,17,04,45,6.40
2019,03,17,04,46,6.40
2019,03,17,04,47,6.40
2019,03,17,04,48,6.40
2019,03,17,04,49,6.40
2019,03,17,04,50,6.40
2019,03,17,04,51,6.40
2019,03,17,04,52,6.40
2019,03,17,04,53,6.40
2019,03,17,04,54,6.40
2019,03,17,04,55,6.40
2019,03,17,04,56,6.40
2019,03,17,04,57,6.40
2019,03,17,04,58,6.40
2019,03,17,04,59,6.30
2019,03,17,05,00,6.30
2019,03,17,05,01,6.30
2019,03,17,05,02,6.30
2019,03,17,05,03,6.30
2019,03,17,05,04,6.20
2019,03,17,05,05,6.20
2019,03,17,05,06,6.20
2019,03,17,05,07,6.20
2019,03,17,05,08,6.20
2019,03,17,05,09,6.10
2019,03,17,05,10,6.10
2019,03,17,05,11,6.10
2019,03,17,05,12,6.10
2019,03,17,05,13,6.00
2019,03,17,05,14,6.00
2019,03,17,05,15,6.00
2019,03,17,05,16,6.00
2019,03,17,05,17,5.90
2019,03,17,05,18,5.90
2019,03,17,05,19,5.90
2019,03,17,05,20,5.90
2019,03,17,05,21,5.80
2019,03,17,05,22,5.80
2019,03,17,05,23,5.80
2019,03,17,05,24,5.80
2019,03,17,05,25,5.70
2019,03,17,05,26,5.70
2019,03,17,05,27,5.70
2019,03,17,05,28,5.70
2019,03,17,05,29,5.70
2019,03,17,05,30,5.70
2019,03,17,05,31,5.70
2019,03,17,05,32,5.70
2019,03,17,05,33,5.70
2019,03,17,05,34,5.70
2019,03,17,05,35,5.70
2019,03,17,05,36,5.70
2019,03,17,05,37,5.60
2019,03,17,05,38,5.60
2019,03,17,05,39,5.60
2019,03,17,05,40,5.60
2019,03,17,05,41,5.60
2019,03,17,05,42,5.60
2019,03,17,05,43,5.60
2019,03,17,05,44,5.60
2019,03,17,05,45,5.60
2019,03,17,05,46,5.60
2019,03,17,05,47,5.60
2019,03,17,05,48,5.60
2019,03,17,05,49,5.50
2019,03,17,05,50,5.50
2019,03,17,05,51,5.50
2019,03,17,05,52,5.50
2019,03,17,05,53,5.50
2019,03,17,05,54,5.50
2019,03,17,05,55,5.50
2019,03,17,05,56,5.40
2019,03,17,05,57,5.40
2019,03,17,05,58,5.40
2019,03,17,05,59,5.40
2019,03,17,06,00,5.40
2019,03,17,06,01,5.30
2019,03,17,06,02,5.30
2019,03,17,06,03,5.30
2019,03,17,06,04,5.30
2019,03,17,06,05,5.30
2019,03,17,06,06,5.20
2019,03,17,06,07,5.20
2019,03,17,06,08,5.20
2019,03,17,06,09,5.20
2019,03,17,06,10,5.20
2019,03,17,06,11,5.20
2019,03,17,06,12,5.20
2019,03,17,06,13,5.20
2019,03,17,06,14,5.20
2019,03,17,06,15,5.10
2019,03,17,06,16,5.10
2019,03,17,06,17,5.10
2019,03,17,06,18,5.10
2019,03,17,06,19,5.10
2019,03,17,06,20,5.10
2019,03,17,06,21,5.10
2019,03,17,06,22,5.00
2019,03,17,06,23,5.00
2019,03,17,06,24,5.00
2019,03,17,06,25,5.00
2019,03,17,06,26,5.00
2019,03,17,06,27,4.90
2019,03,17,06,28,4.90
2019,03,17,06,29,4.90
2019,03,17,06,30,4.90
2019,03,17,06,31,4.80
2019,03,17,06,32,4.80
2019,03,17,06,33,4.80
2019,03,17,06,34,4.80
2019,03,17,06,35,4.80
2019,03,17,06,36,4.70
2019,03,17,06,37,4.70
2019,03,17,06,38,4.70
2019,03,17,06,39,4.70
2019,03,17,06,40,4.70
2019,03,17,06,41,4.60
2019,03,17,06,42,4.60
2019,03,17,06,43,4.50
2019,03,17,06,44,4.50
2019,03,17,06,45,4.50
2019,03,17,06,46,4.50
2019,03,17,06,47,4.40
2019,03,17,06,48,4.40
2019,03,17,06,49,4.40
2019,03,17,06,50,4.40
2019,03,17,06,51,4.30
2019,03,17,06,52,4.30
2019,03,17,06,53,4.30
2019,03,17,06,54,4.30
2019,03,17,06,55,4.30
2019,03,17,06,56,4.30
2019,03,17,06,57,4.20
2019,03,17,06,58,4.20
2019,03,17,06,59,4.20
2019,03,17,07,00,4.20
2019,03,17,07,01,4.20
2019,03,17,07,02,4.20
2019,03,17,07,03,4.20
2019,03,17,07,04,4.20
2019,03,17,07,05,4.20
2019,03,17,07,06,4.20
2019,03,17,07,07,4.20
2019,03,17,07,08,4.20
2019,03,17,07,09,4.20
2019,03,17,07,10,4.20
2019,03,17,07,11,4.20
2019,03,17,07,12,4.20
2019,03,17,07,13,4.20
2019,03,17,07,14,4.20
2019,03,17,07,15,4.20
2019,03,17,07,16,4.20
2019,03,17,07,17,4.20
2019,03,17,07,18,4.20
2019,03,17,07,19,4.20
2019,03,17,07,20,4.20
2019,03,17,07,21,4.20
2019,03,17,07,22,4.20
2019,03,17,07,23,4.20
2019,03,17,07,24,4.20
2019,03,17,07,25,4.20
2019,03,17,07,26,4.20
2019,03,17,07,27,4.20
2019,03,17,07,28,4.20
2019,03,17,07,29,4.30
2019,03,17,07,30,4.30
2019,03,17,07,31,4.30
2019,03,17,07,32,4.30
2019,03,17,07,33,4.30
2019,03,17,07,34,4.30
2019,03,17,07,35,4.30
2019,03,17,07,36,4.30
2019,03,17,07,37,4.30
2019,03,17,07,38,4.30
2019,03,17,07,39,4.30
2019,03,17,07,40,4.30
2019,03,17,07,41,4.40
2019,03,17,07,42,4.40
2019,03,17,07,43,4.40
2019,03,17,07,44,4.40
2019,03,17,07,45,4.40
2019,03,17,07,46,4.40
2019,03,17,07,47,4.40
2019,03,17,07,48,4.40
2019,03,17,07,49,4.40
2019,03,17,07,50,4.40
2019,03,17,07,51,4.40
2019,03,17,07,52,4.40
2019,03,17,07,53,4.40
2019,03,17,07,54,4.40
2019,03,17,07,55,4.40
2019,03,17,07,56,4.40
2019,03,17,07,57,4.40
2019,03,17,07,58,4.40
2019,03,17,07,59,4.40
2019,03,17,08,00,4.40
2019,03,17,08,01,4.40
2019,03,17,08,02,4.40
2019,03,17,08,03,4.40
2019,03,17,08,04,4.50
2019,03,17,08,05,4.50
2019,03,17,08,06,4.50
2019,03,17,08,07,4.50
2019,03,17,08,08,4.60
2019,03,17,08,09,4.60
2019,03,17,08,10,4.60
2019,03,17,08,11,4.60
2019,03,17,08,12,4.70
2019,03,17,08,13,4.70
2019,03,17,08,14,4.70
2019,03,17,08,15,4.80
2019,03,17,08,16,4.80
2019,03,17,08,17,4.90
2019,03,17,08,18,4.90
2019,03,17,08,19,5.00
2019,03,17,08,20,5.10
2019,03,17,08,21,5.10
2019,03,17,08,22,5.20
2019,03,17,08,23,5.20
2019,03,17,08,24,5.30
2019,03,17,08,25,5.30
2019,03,17,08,26,5.40
2019,03,17,08,27,5.40
2019,03,17,08,28,5.50
2019,03,17,08,29,5.50
2019,03,17,08,30,5.60
2019,03,17,08,31,5.60
2019,03,17,08,32,5.70
2019,03,17,08,33,5.70
2019,03,17,08,34,5.70
2019,03,17,08,35,5.80
2019,03,17,08,36,5.80
2019,03,17,08,37,5.90
2019,03,17,08,38,5.90
2019,03,17,08,39,6.00
2019,03,17,08,40,6.10
2019,03,17,08,41,6.20
2019,03,17,08,42,6.30
2019,03,17,08,43,6.40
2019,03,17,08,44,6.40
2019,03,17,08,45,6.50
2019,03,17,08,46,6.60
2019,03,17,08,47,6.70
2019,03,17,08,48,6.70
2019,03,17,08,49,6.80
2019,03,17,08,50,6.90
2019,03,17,08,51,6.90
2019,03,17,08,52,7.00
2019,03,17,08,53,7.00
2019,03,17,08,54,7.10
2019,03,17,08,55,7.10
2019,03,17,08,56,7.20
2019,03,17,08,57,7.20
2019,03,17,08,58,7.20
2019,03,17,08,59,7.30
2019,03,17,09,00,7.30
2019,03,17,09,01,7.40
2019,03,17,09,02,7.50
2019,03,17,09,03,7.50
2019,03,17,09,04,7.60
2019,03,17,09,05,7.70
2019,03,17,09,06,7.80
2019,03,17,09,07,7.80
2019,03,17,09,08,7.90
2019,03,17,09,09,7.90
2019,03,17,09,10,8.00
2019,03,17,09,11,8.00
2019,03,17,09,12,8.10
2019,03,17,09,13,8.10
2019,03,17,09,14,8.20
2019,03,17,09,15,8.20
2019,03,17,09,16,8.30
2019,03,17,09,17,8.30
2019,03,17,09,18,8.40
2019,03,17,09,19,8.40
2019,03,17,09,20,8.50
2019,03,17,09,21,8.60
2019,03,17,09,22,8.60
2019,03,17,09,23,8.60
2019,03,17,09,24,8.70
2019,03,17,09,25,8.70
2019,03,17,09,26,8.80
2019,03,17,09,27,8.80
2019,03,17,09,28,8.90
2019,03,17,09,29,8.90
2019,03,17,09,30,8.90
2019,03,17,09,31,8.90
2019,03,17,09,32,8.90
2019,03,17,09,33,8.90
2019,03,17,09,34,9.00
2019,03,17,09,35,9.00
2019,03,17,09,36,9.10
2019,03,17,09,37,9.10
2019,03,17,09,38,9.00
2019,03,17,09,39,9.00
2019,03,17,09,40,9.10
2019,03,17,09,41,9.10
2019,03,17,09,42,9.10
2019,03,17,09,43,9.10
2019,03,17,09,44,9.10
2019,03,17,09,45,9.10
2019,03,17,09,46,9.10
2019,03,17,09,47,9.20
2019,03,17,09,48,9.20
2019,03,17,09,49,9.20
2019,03,17,09,50,9.20
2019,03,17,09,51,9.20
2019,03,17,09,52,9.30
2019,03,17,09,53,9.30
2019,03,17,09,54,9.40
2019,03,17,09,55,9.40
2019,03,17,09,56,9.50
2019,03,17,09,57,9.50
2019,03,17,09,58,9.50
2019,03,17,09,59,9.60
2019,03,17,10,00,9.60
2019,03,17,10,01,9.60
2019,03,17,10,02,9.60
2019,03,17,10,03,9.70
2019,03,17,10,04,9.70
2019,03,17,10,05,9.60
2019,03,17,10,06,9.70
2019,03,17,10,07,9.70
2019,03,17,10,08,9.70
2019,03,17,10,09,9.70
2019,03,17,10,10,9.70
2019,03,17,10,11,9.70
2019,03,17,10,12,9.70
2019,03,17,10,13,9.70
2019,03,17,10,14,9.80
2019,03,17,10,15,9.80
2019,03,17,10,16,9.80
2019,03,17,10,17,9.80
2019,03,17,10,18,9.90
2019,03,17,10,19,9.90
2019,03,17,10,20,10.00
2019,03,17,10,21,10.00
2019,03,17,10,22,10.00
2019,03,17,10,23,10.10
2019,03,17,10,24,10.10
2019,03,17,10,25,10.10
2019,03,17,10,26,10.10
2019,03,17,10,27,10.10
2019,03,17,10,28,10.10
2019,03,17,10,29,10.20
2019,03,17,10,30,10.20
2019,03,17,10,31,10.20
2019,03,17,10,32,10.20
2019,03,17,10,33,10.30
2019,03,17,10,34,10.30
2019,03,17,10,35,10.30
2019,03,17,10,36,10.30
2019,03,17,10,37,10.30
2019,03,17,10,38,10.30
2019,03,17,10,39,10.30
2019,03,17,10,40,10.30
2019,03,17,10,41,10.20
2019,03,17,10,42,10.20
2019,03,17,10,43,10.20
2019,03,17,10,44,10.20
2019,03,17,10,45,10.20
2019,03,17,10,46,10.20
2019,03,17,10,47,10.20
2019,03,17,10,48,10.20
2019,03,17,10,49,10.20
2019,03,17,10,50,10.10
2019,03,17,10,51,10.20
2019,03,17,10,52,10.20
2019,03,17,10,53,10.20
2019,03,17,10,54,10.20
2019,03,17,10,55,10.20
2019,03,17,10,56,10.20
2019,03,17,10,57,10.20
2019,03,17,10,58,10.30
2019,03,17,10,59,10.20
2019,03,17,11,00,10.20
2019,03,17,11,01,10.20
2019,03,17,11,02,10.20
2019,03,17,11,03,10.20
2019,03,17,11,04,10.20
2019,03,17,11,05,10.20
2019,03,17,11,06,10.30
2019,03,17,11,07,10.30
2019,03,17,11,08,10.30
2019,03,17,11,09,10.40
2019,03,17,11,10,10.40
2019,03,17,11,11,10.50
2019,03,17,11,12,10.50
2019,03,17,11,13,10.50
2019,03,17,11,14,10.60
2019,03,17,11,15,10.60
2019,03,17,11,16,10.60
2019,03,17,11,17,10.70
2019,03,17,11,18,10.70
2019,03,17,11,19,10.70
2019,03,17,11,20,10.70
2019,03,17,11,21,10.70
2019,03,17,11,22,10.70
2019,03,17,11,23,10.70
2019,03,17,11,24,10.70
2019,03,17,11,25,10.80
2019,03,17,11,26,10.80
2019,03,17,11,27,10.90
2019,03,17,11,28,10.90
2019,03,17,11,29,11.00
2019,03,17,11,30,11.00
2019,03,17,11,31,11.00
2019,03,17,11,32,11.10
2019,03,17,11,33,11.10
2019,03,17,11,34,11.10
2019,03,17,11,35,11.20
2019,03,17,11,36,11.20
2019,03,17,11,37,11.30
2019,03,17,11,38,11.30
2019,03,17,11,39,11.30
2019,03,17,11,40,11.30
2019,03,17,11,41,11.30
2019,03,17,11,42,11.30
2019,03,17,11,43,11.20
2019,03,17,11,44,11.20
2019,03,17,11,45,11.20
2019,03,17,11,46,11.20
2019,03,17,11,47,11.20
2019,03,17,11,48,11.30
2019,03,17,11,49,11.40
2019,03,17,11,50,11.40
2019,03,17,11,51,11.40
2019,03,17,11,52,11.30
2019,03,17,11,53,11.30
2019,03,17,11,54,11.40
2019,03,17,11,55,11.40
2019,03,17,11,56,11.30
2019,03,17,11,57,11.30
2019,03,17,11,58,11.30
2019,03,17,11,59,11.30
2019,03,17,12,00,11.30
2019,03,17,12,01,11.30
2019,03,17,12,02,11.30
2019,03,17,12,03,11.40
2019,03,17,12,04,11.40
2019,03,17,12,05,11.50
2019,03,17,12,06,11.60
2019,03,17,12,07,11.60
2019,03,17,12,08,11.70
2019,03,17,12,09,11.60
2019,03,17,12,10,11.60
2019,03,17,12,11,11.60
2019,03,17,12,12,11.60
2019,03,17,12,13,11.70
2019,03,17,12,14,11.70
2019,03,17,12,15,11.70
2019,03,17,12,16,11.80
2019,03,17,12,17,11.80
2019,03,17,12,18,11.90
2019,03,17,12,19,11.90
2019,03,17,12,20,11.90
2019,03,17,12,21,11.90
2019,03,17,12,22,11.90
2019,03,17,12,23,11.90
2019,03,17,12,24,12.00
2019,03,17,12,25,12.10
2019,03,17,12,26,12.10
2019,03,17,12,27,12.20
2019,03,17,12,28,12.20
2019,03,17,12,29,12.20
2019,03,17,12,30,12.20
2019,03,17,12,31,12.20
2019,03,17,12,32,12.30
2019,03,17,12,33,12.30
2019,03,17,12,34,12.30
2019,03,17,12,35,12.30
2019,03,17,12,36,12.30
2019,03,17,12,37,12.30
2019,03,17,12,38,12.30
2019,03,17,12,39,12.30
2019,03,17,12,40,12.30
2019,03,17,12,41,12.30
2019,03,17,12,42,12.30
2019,03,17,12,43,12.30
2019,03,17,12,44,12.30
2019,03,17,12,45,12.40
2019,03,17,12,46,12.40
2019,03,17,12,47,12.40
2019,03,17,12,48,12.40
2019,03,17,12,49,12.30
2019,03,17,12,50,12.40
2019,03,17,12,51,12.40
2019,03,17,12,52,12.40
2019,03,17,12,53,12.50
2019,03,17,12,54,12.60
2019,03,17,12,55,12.60
2019,03,17,12,56,12.60
2019,03,17,12,57,12.60
2019,03,17,12,58,12.60
2019,03,17,12,59,12.60
2019,03,17,13,00,12.60
2019,03,17,13,01,12.60
2019,03,17,13,02,12.70
2019,03,17,13,03,12.70
2019,03,17,13,04,12.70
2019,03,17,13,05,12.70
2019,03,17,13,06,12.70
2019,03,17,13,07,12.70
2019,03,17,13,08,12.70
2019,03,17,13,09,12.70
2019,03,17,13,10,12.70
2019,03,17,13,11,12.70
2019,03,17,13,12,12.70
2019,03,17,13,13,12.80
2019,03,17,13,14,12.80
2019,03,17,13,15,12.90
2019,03,17,13,16,12.90
2019,03,17,13,17,13.00
2019,03,17,13,18,13.00
2019,03,17,13,19,13.10
2019,03,17,13,20,13.10
2019,03,17,13,21,13.10
2019,03,17,13,22,13.10
2019,03,17,13,23,13.10
2019,03,17,13,24,13.20
2019,03,17,13,25,13.20
2019,03,17,13,26,13.30
2019,03,17,13,27,13.30
2019,03,17,13,28,13.30
2019,03,17,13,29,13.40
2019,03,17,13,30,13.40
2019,03,17,13,31,13.40
2019,03,17,13,32,13.40
2019,03,17,13,33,13.40
2019,03,17,13,34,13.40
2019,03,17,13,35,13.50
2019,03,17,13,36,13.60
2019,03,17,13,37,13.60
2019,03,17,13,38,13.60
2019,03,17,13,39,13.70
2019,03,17,13,40,13.80
2019,03,17,13,41,13.80
2019,03,17,13,42,13.90
2019,03,17,13,43,13.90
2019,03,17,13,44,14.00
2019,03,17,13,45,14.00
2019,03,17,13,46,14.10
2019,03,17,13,47,14.10
2019,03,17,13,48,14.20
2019,03,17,13,49,14.20
2019,03,17,13,50,14.20
2019,03,17,13,51,14.30
2019,03,17,13,52,14.30
2019,03,17,13,53,14.30
2019,03,17,13,54,14.20
2019,03,17,13,55,14.20
2019,03,17,13,56,14.30
2019,03,17,13,57,14.30
2019,03,17,13,58,14.30
2019,03,17,13,59,14.20
2019,03,17,14,00,14.30
2019,03,17,14,01,14.30
2019,03,17,14,02,14.20
2019,03,17,14,03,14.20
2019,03,17,14,04,14.20
2019,03,17,14,05,14.10
2019,03,17,14,06,14.20
2019,03,17,14,07,14.20
2019,03,17,14,08,14.20
2019,03,17,14,09,14.30
2019,03,17,14,10,14.30
2019,03,17,14,11,14.20
2019,03,17,14,12,14.20
2019,03,17,14,13,14.20
2019,03,17,14,14,14.30
2019,03,17,14,15,14.30
2019,03,17,14,16,14.20
2019,03,17,14,17,14.20
2019,03,17,14,18,14.20
2019,03,17,14,19,14.20
2019,03,17,14,20,14.20
2019,03,17,14,21,14.20
2019,03,17,14,22,14.20
2019,03,17,14,23,14.20
2019,03,17,14,24,14.30
2019,03,17,14,25,14.20
2019,03,17,14,26,14.20
2019,03,17,14,27,14.20
2019,03,17,14,28,14.30
2019,03,17,14,29,14.30
2019,03,17,14,30,14.20
2019,03,17,14,31,14.20
2019,03,17,14,32,14.10
2019,03,17,14,33,14.10
2019,03,17,14,34,14.20
2019,03,17,14,35,14.20
2019,03,17,14,36,14.20
2019,03,17,14,37,14.30
2019,03,17,14,38,14.30
2019,03,17,14,39,14.30
2019,03,17,14,40,14.30
2019,03,17,14,41,14.30
2019,03,17,14,42,14.30
2019,03,17,14,43,14.30
2019,03,17,14,44,14.30
2019,03,17,14,45,14.30
2019,03,17,14,46,14.30
2019,03,17,14,47,14.30
2019,03,17,14,48,14.30
2019,03,17,14,49,14.30
2019,03,17,14,50,14.30
2019,03,17,14,51,14.30
2019,03,17,14,52,14.30
2019,03,17,14,53,14.30
2019,03,17,14,54,14.30
2019,03,17,14,55,14.30
2019,03,17,14,56,14.30
2019,03,17,14,57,14.40
2019,03,17,14,58,14.40
2019,03,17,14,59,14.40
2019,03,17,15,00,14.40
2019,03,17,15,01,14.40
2019,03,17,15,02,14.30
2019,03,17,15,03,14.30
2019,03,17,15,04,14.30
2019,03,17,15,05,14.30
2019,03,17,15,06,14.30
2019,03,17,15,07,14.40
2019,03,17,15,08,14.40
2019,03,17,15,09,14.40
2019,03,17,15,10,14.40
2019,03,17,15,11,14.50
2019,03,17,15,12,14.60
2019,03,17,15,13,14.70
2019,03,17,15,14,14.80
2019,03,17,15,15,14.80
2019,03,17,15,16,14.80
2019,03,17,15,17,14.80
2019,03,17,15,18,14.80
2019,03,17,15,19,14.80
2019,03,17,15,20,14.80
2019,03,17,15,21,14.80
2019,03,17,15,22,14.80
2019,03,17,15,23,14.90
2019,03,17,15,24,14.90
2019,03,17,15,25,15.00
2019,03,17,15,26,15.00
2019,03,17,15,27,15.00
2019,03,17,15,28,15.00
2019,03,17,15,29,15.10
2019,03,17,15,30,15.10
2019,03,17,15,31,15.20
2019,03,17,15,32,15.20
2019,03,17,15,33,15.20
2019,03,17,15,34,15.20
2019,03,17,15,35,15.10
2019,03,17,15,36,15.10
2019,03,17,15,37,15.10
2019,03,17,15,38,15.10
2019,03,17,15,39,15.10
2019,03,17,15,40,15.10
2019,03,17,15,41,15.10
2019,03,17,15,42,15.10
2019,03,17,15,43,15.10
2019,03,17,15,44,15.10
2019,03,17,15,45,15.10
2019,03,17,15,46,15.10
2019,03,17,15,47,15.10
2019,03,17,15,48,15.10
2019,03,17,15,49,15.20
2019,03,17,15,50,15.20
2019,03,17,15,51,15.20
2019,03,17,15,52,15.20
2019,03,17,15,53,15.20
2019,03,17,15,54,15.20
2019,03,17,15,55,15.20
2019,03,17,15,56,15.30
2019,03,17,15,57,15.30
2019,03,17,15,58,15.40
2019,03,17,15,59,15.40
2019,03,17,16,00,15.40
2019,03,17,16,01,15.40
2019,03,17,16,02,15.40
2019,03,17,16,03,15.40
2019,03,17,16,04,15.40
2019,03,17,16,05,15.40
2019,03,17,16,06,15.40
2019,03,17,16,07,15.40
2019,03,17,16,08,15.40
2019,03,17,16,09,15.40
2019,03,17,16,10,15.50
2019,03,17,16,11,15.60
2019,03,17,16,12,15.60
2019,03,17,16,13,15.60
2019,03,17,16,14,15.70
2019,03,17,16,15,15.80
2019,03,17,16,16,15.80
2019,03,17,16,17,15.80
2019,03,17,16,18,15.80
2019,03,17,16,19,15.70
2019,03,17,16,20,15.70
2019,03,17,16,21,15.70
2019,03,17,16,22,15.80
2019,03,17,16,23,15.70
2019,03,17,16,24,15.70
2019,03,17,16,25,15.70
2019,03,17,16,26,15.80
2019,03,17,16,27,15.80
2019,03,17,16,28,15.80
2019,03,17,16,29,15.80
2019,03,17,16,30,15.80
2019,03,17,16,31,15.80
2019,03,17,16,32,15.80
2019,03,17,16,33,15.80
2019,03,17,16,34,15.80
2019,03,17,16,35,15.80
2019,03,17,16,36,15.80
2019,03,17,16,37,15.80
2019,03,17,16,38,15.80
2019,03,17,16,39,15.80
2019,03,17,16,40,15.80
2019,03,17,16,41,15.70
2019,03,17,16,42,15.70
2019,03,17,16,43,15.70
2019,03,17,16,44,15.70
2019,03,17,16,45,15.70
2019,03,17,16,46,15.80
2019,03,17,16,47,15.80
2019,03,17,16,48,15.70
2019,03,17,16,49,15.70
2019,03,17,16,50,15.70
2019,03,17,16,51,15.80
2019,03,17,16,52,15.70
2019,03,17,16,53,15.70
2019,03,17,16,54,15.70
2019,03,17,16,55,15.70
2019,03,17,16,56,15.70
2019,03,17,16,57,15.80
2019,03,17,16,58,15.80
2019,03,17,16,59,15.90
2019,03,17,17,00,15.90
2019,03,17,17,01,15.90
2019,03,17,17,02,16.00
2019,03,17,17,03,16.00
2019,03,17,17,04,16.00
2019,03,17,17,05,16.00
2019,03,17,17,06,16.00
2019,03,17,17,07,16.00
2019,03,17,17,08,16.00
2019,03,17,17,09,16.00
2019,03,17,17,10,16.00
2019,03,17,17,11,16.00
2019,03,17,17,12,16.00
2019,03,17,17,13,16.00
2019,03,17,17,14,16.00
2019,03,17,17,15,16.00
2019,03,17,17,16,16.00
2019,03,17,17,17,15.90
2019,03,17,17,18,15.90
2019,03,17,17,19,15.90
2019,03,17,17,20,15.80
2019,03,17,17,21,15.80
2019,03,17,17,22,15.80
2019,03,17,17,23,15.80
2019,03,17,17,24,15.80
2019,03,17,17,25,15.80
2019,03,17,17,26,15.70
2019,03,17,17,27,15.70
2019,03,17,17,28,15.70
2019,03,17,17,29,15.60
2019,03,17,17,30,15.60
2019,03,17,17,31,15.60
2019,03,17,17,32,15.60
2019,03,17,17,33,15.60
2019,03,17,17,34,15.60
2019,03,17,17,35,15.60
2019,03,17,17,36,15.50
2019,03,17,17,37,15.50
2019,03,17,17,38,15.60
2019,03,17,17,39,15.60
2019,03,17,17,40,15.60
2019,03,17,17,41,15.60
2019,03,17,17,42,15.60
2019,03,17,17,43,15.60
2019,03,17,17,44,15.60
2019,03,17,17,45,15.60
2019,03,17,17,46,15.60